ONEWEB-0008 (44059 NORAD) Tracking and Keplerian Element Data

This shows tracking and keplerian element data for the satellite.

Feedback or suggestion? Click here.




ElementValue
Catalog44059
NameONEWEB-0008
Epoch Orbit300
Epoch Day80.95111682
Epoch Year2019
RAAN65.6664
Inclination87.7708
Eccentricity0.0015542
Argument of Perigee179.8174
Mean Anonmoly180.2996
Mean Motion13.70262398
Decay Rate5.6E-07
L11 44059U 19010C 19080.95111682 .00000056 00000-0 46356-4 0 9993
L22 44059 87.7708 65.6664 0015542 179.8174 180.2996 13.70262398 3007

Live tracking and technical data element details for ONEWEB-0008 (NORAD 44059). ONEWEB-0008 can be tracked NOW for your location showing map with azimuth and elevation plus other details from your city location.

Track the satellite on the map from your city or location and see movement details for azimuth, elevation, latitude, longitude, range, height, and movement on the map or in text.







IsCatalogInMostPopularTable: catalog: 44059, numindb: 51
Update: records affected: 1



GetName: 44059 ONEWEB-0008

Hit Count: updated at: Sat, 23 Mar 2019 00:44:59 GMT